DW5963 Weather Reports


time (UTC)temp
F
wind
direction
speed
knots
gust
knots
rain 1hr
in
rain 24hr
in
rain mn
in
humidity
%
barometer
mb
20260905163048 77 360 7.8 0.0 0.00 0.00 0.00 72 1008.7
20260905162545 77 90 7.8 0.0 0.00 0.00 0.00 73 1008.7
20260905162043 76 98 8.7 0.0 0.00 0.00 0.00 73 1008.6
20260905161543 76 86 8.7 0.0 0.00 0.00 0.00 74 1008.4
20260905161043 76 90 7.8 0.0 0.00 0.00 0.00 74 1008.5
20260905160542 76 103 7.0 0.0 0.00 0.00 0.00 74 1008.8
20260905160109 76 90 7.0 0.0 0.00 0.00 0.00 75 1008.8
20260905155540 75 360 7.8 0.0 0.00 0.00 0.00 75 1008.8
20260905155043 75 88 8.7 0.0 0.00 0.00 0.00 75 1008.7
20260905154039 75 89 8.7 0.0 0.00 0.00 0.00 76 1008.6
20260905153537 74 76 9.6 0.0 0.00 0.00 0.00 76 1008.5
20260905153036 74 98 9.6 0.0 0.00 0.00 0.00 76 1008.5
20260905152536 74 94 8.7 0.0 0.00 0.00 0.00 77 1008.3
20260905152037 74 105 8.7 0.0 0.00 0.00 0.00 77 1008.4
20260905151537 74 80 9.6 0.0 0.00 0.00 0.00 76 1008.3
20260905151034 74 98 9.6 0.0 0.00 0.00 0.00 77 1008.4
20260905150534 73 105 9.6 0.0 0.00 0.00 0.00 78 1008.4
20260905150034 73 90 9.6 0.0 0.00 0.00 0.00 79 1008.5
20260905145531 72 107 8.7 0.0 0.00 0.00 0.00 79 1008.7
20260905145031 72 107 7.0 0.0 0.00 0.00 0.00 79 1008.7
20260905144032 72 360 6.1 0.0 0.00 0.00 0.00 80 1008.7
20260905143534 71 360 6.1 0.0 0.00 0.00 0.00 80 1008.8
20260905143030 71 360 6.1 0.0 0.00 0.00 0.00 81 1008.8
20260905142530 71 360 6.1 0.0 0.00 0.00 0.00 81 1008.9
20260905142029 70 360 6.1 0.0 0.00 0.00 0.00 82 1008.9
20260905141529 70 360 6.1 0.0 0.00 0.00 0.00 82 1009.0
20260905141027 70 360 6.1 0.0 0.00 0.00 0.00 83 1009.0
20260905140530 70 360 6.1 0.0 0.00 0.00 0.00 83 1008.9
20260905140026 69 360 6.1 0.0 0.00 0.00 0.00 84 1008.7
20260905135526 69 360 7.0 0.0 0.00 0.00 0.00 84 1008.6
20260905135025 69 360 6.1 0.0 0.00 0.00 0.00 85 1008.6
20260905134026 68 360 7.0 0.0 0.00 0.00 0.00 86 1008.5
20260905133524 68 360 7.0 0.0 0.00 0.00 0.00 87 1008.3
20260905133024 67 360 6.1 0.0 0.00 0.00 0.00 87 1008.3
20260905132527 67 360 5.2 0.0 0.00 0.00 0.00 88 1008.2
20260905132025 67 360 4.3 0.0 0.00 0.00 0.00 88 1008.1
20260905131523 66 360 3.5 0.0 0.00 0.00 0.00 89 1008.2
20260905131024 66 360 3.5 0.0 0.00 0.00 0.00 89 1008.3
20260905130522 66 360 4.3 0.0 0.00 0.00 0.00 90 1008.1
20260905130022 66 360 4.3 0.0 0.00 0.00 0.00 90 1008.0
20260905125521 66 360 4.3 0.0 0.00 0.00 0.00 90 1008.1
20260905125021 65 360 4.3 0.0 0.00 0.00 0.00 90 1008.0
20260905124019 65 360 5.2 0.0 0.00 0.00 0.00 90 1008.0
20260905123518 65 360 5.2 0.0 0.00 0.00 0.00 90 1007.8
20260905123018 65 360 4.3 0.0 0.00 0.00 0.00 90 1007.7
20260905122517 65 360 4.3 0.0 0.00 0.00 0.00 90 1007.6
20260905122015 65 360 4.3 0.0 0.00 0.00 0.00 90 1007.5
20260905121515 65 360 4.3 0.0 0.00 0.00 0.00 90 1007.4
20260905121016 65 360 4.3 0.0 0.00 0.00 0.00 89 1007.3
20260905120514 65 360 5.2 0.0 0.00 0.00 0.00 89 1007.2
20260905120012 65 360 5.2 0.0 0.00 0.00 0.00 89 1006.9
20260905115513 66 360 5.2 0.0 0.00 0.00 0.00 89 1006.9
20260905115011 66 360 5.2 0.0 0.00 0.00 0.00 89 1006.9
20260905114010 66 360 6.1 0.0 0.00 0.00 0.00 88 1006.6
20260905113510 66 360 6.1 0.0 0.00 0.00 0.00 88 1006.5
20260905113009 66 360 6.1 0.0 0.00 0.00 0.00 88 1006.5
20260905112510 66 360 6.1 0.0 0.00 0.00 0.00 87 1006.3
20260905112007 66 360 5.2 0.0 0.00 0.00 0.00 87 1006.3
20260905111507 66 360 5.2 0.0 0.00 0.00 0.00 87 1006.2
20260905111005 67 360 5.2 0.0 0.00 0.00 0.00 87 1006.1
20260905110503 67 360 5.2 0.0 0.00 0.00 0.00 86 1006.1
20260905110003 67 360 6.1 0.0 0.00 0.00 0.00 86 1005.8
20260905105503 67 360 6.1 0.0 0.00 0.00 0.00 86 1005.8
20260905105002 67 360 5.2 0.0 0.00 0.00 0.00 85 1005.7
20260905104102 67 360 5.2 0.0 0.00 0.00 0.00 85 1005.7
20260905103601 67 360 6.1 0.0 0.00 0.00 0.00 85 1005.7
20260905103059 68 360 6.1 0.0 0.00 0.00 0.00 84 1005.6
20260905102557 68 360 6.1 0.0 0.00 0.00 0.00 84 1005.6
20260905102058 68 360 6.1 0.0 0.00 0.00 0.00 84 1005.6
20260905101557 68 360 6.1 0.0 0.00 0.00 0.00 84 1005.4
20260905101056 68 360 5.2 0.0 0.00 0.00 0.00 83 1005.5
20260905100556 68 360 6.1 0.0 0.00 0.00 0.00 83 1005.3
20260905100055 68 360 6.1 0.0 0.00 0.00 0.00 83 1005.4
20260905095554 68 360 6.1 0.0 0.00 0.00 0.00 83 1005.4
20260905095054 69 360 6.1 0.0 0.00 0.00 0.00 83 1005.4
20260905094654 68 360 7.0 0.0 0.00 0.00 0.00 83 1005.2
20260905094056 68 360 6.1 0.0 0.00 0.00 0.00 83 1005.1
20260905093554 68 360 7.0 0.0 0.00 0.00 0.00 83 1005.2
20260905093054 69 360 7.0 0.0 0.00 0.00 0.00 82 1005.1
20260905092555 69 360 7.0 0.0 0.00 0.00 0.00 82 1005.2
20260905092052 69 360 7.0 0.0 0.00 0.00 0.00 82 1005.2
20260905091617 69 360 6.1 0.0 0.00 0.00 0.00 82 1005.2
20260905091050 69 360 6.1 0.0 0.00 0.00 0.00 81 1005.1
20260905090549 69 360 6.1 0.0 0.00 0.00 0.00 81 1005.1
20260905090106 69 360 6.1 0.0 0.00 0.00 0.00 81 1005.1
20260905085548 69 360 6.1 0.0 0.00 0.00 0.00 81 1005.1
20260905085049 69 360 6.1 0.0 0.00 0.00 0.00 81 1005.0
20260905084647 69 360 6.1 0.0 0.00 0.00 0.00 80 1004.9
20260905084047 69 360 6.1 0.0 0.00 0.00 0.00 80 1005.0
20260905083546 69 360 6.1 0.0 0.00 0.00 0.00 80 1005.1
20260905083046 69 360 6.1 0.0 0.00 0.00 0.00 79 1005.0
20260905082545 69 360 7.0 0.0 0.00 0.00 0.00 79 1005.0
20260905082044 70 360 7.0 0.0 0.00 0.00 0.00 78 1005.0
20260905081543 70 360 6.1 0.0 0.00 0.00 0.00 78 1005.0
20260905081043 69 360 5.2 0.0 0.00 0.00 0.00 78 1005.1
20260905080545 69 360 5.2 0.0 0.00 0.00 0.00 78 1005.2
20260905080049 69 360 4.3 0.0 0.00 0.00 0.00 77 1005.4
20260905075539 70 360 4.3 0.0 0.00 0.00 0.00 76 1005.3
20260905075038 70 360 4.3 0.0 0.00 0.00 0.00 76 1005.2
20260905074638 70 360 4.3 0.0 0.00 0.00 0.00 74 1005.1
20260905074037 70 360 5.2 0.0 0.00 0.00 0.00 74 1005.2
20260905073536 71 360 5.2 0.0 0.00 0.00 0.00 73 1005.2
20260905073035 71 360 5.2 0.0 0.00 0.00 0.00 73 1005.1
20260905072534 71 360 5.2 0.0 0.00 0.00 0.00 73 1005.1
20260905072035 71 360 5.2 0.0 0.00 0.00 0.00 72 1005.2
20260905071535 71 360 5.2 0.0 0.00 0.00 0.00 72 1005.1
20260905071034 72 360 5.2 0.0 0.00 0.00 0.00 71 1005.1
20260905070534 72 360 6.1 0.0 0.00 0.00 0.00 70 1005.1
20260905070034 72 360 6.1 0.0 0.00 0.00 0.00 70 1005.2
20260905065538 72 360 5.2 0.0 0.00 0.00 0.00 70 1005.2
20260905065034 72 360 4.3 0.0 0.00 0.00 0.00 70 1005.2
20260905064634 72 360 4.3 0.0 0.00 0.00 0.00 69 1005.3
20260905064037 72 360 4.3 0.0 0.00 0.00 0.00 69 1005.4
20260905063535 72 360 3.5 0.0 0.00 0.00 0.00 68 1005.3
20260905063035 72 360 4.3 0.0 0.00 0.00 0.00 67 1005.2
20260905062534 73 360 4.3 0.0 0.00 0.00 0.00 66 1005.2
20260905062034 73 360 4.3 0.0 0.00 0.00 0.00 66 1005.2
20260905061545 73 360 4.3 0.0 0.00 0.00 0.00 65 1005.1
20260905061034 73 360 4.3 0.0 0.00 0.00 0.00 64 1005.0
20260905060533 73 360 4.3 0.0 0.00 0.00 0.00 64 1005.1
20260905060034 74 360 4.3 0.0 0.00 0.00 0.00 64 1005.0
20260905055534 74 360 5.2 0.0 0.00 0.00 0.00 63 1005.0
20260905055034 74 360 5.2 0.0 0.00 0.00 0.00 63 1004.9
20260905054634 73 360 5.2 0.0 0.00 0.00 0.00 63 1004.9
20260905054033 73 360 5.2 0.0 0.00 0.00 0.00 63 1004.9
20260905053535 73 360 5.2 0.0 0.00 0.00 0.00 62 1004.9
20260905053033 74 360 5.2 0.0 0.00 0.00 0.00 61 1004.9
20260905052536 74 360 4.3 0.0 0.00 0.00 0.00 60 1004.9
20260905052034 74 360 4.3 0.0 0.00 0.00 0.00 60 1005.0
20260905051538 75 360 4.3 0.0 0.00 0.00 0.00 58 1005.0
20260905051032 75 360 4.3 0.0 0.00 0.00 0.00 58 1005.1
20260905050532 76 360 5.2 0.0 0.00 0.00 0.00 57 1005.0
20260905050035 76 360 5.2 0.0 0.00 0.00 0.00 56 1005.0
20260905045533 76 360 6.1 0.0 0.00 0.00 0.00 56 1005.0
20260905045032 77 360 7.8 0.0 0.00 0.00 0.00 55 1005.0
20260905044633 77 360 7.8 0.0 0.00 0.00 0.00 55 1005.0
20260905044032 77 360 8.7 0.0 0.00 0.00 0.00 55 1004.9
20260905043532 77 95 8.7 0.0 0.00 0.00 0.00 55 1004.9
20260905043032 77 98 8.7 0.0 0.00 0.00 0.00 54 1004.9
20260905042533 77 98 8.7 0.0 0.00 0.00 0.00 54 1004.9
20260905042032 78 103 8.7 0.0 0.00 0.00 0.00 53 1004.9
20260905041532 78 107 10.4 0.0 0.00 0.00 0.00 53 1004.8
20260905041033 78 98 9.6 0.0 0.00 0.00 0.00 52 1004.7
20260905040631 78 86 8.7 0.0 0.00 0.00 0.00 52 1004.8
20260905040032 79 360 8.7 0.0 0.00 0.00 0.00 52 1004.8
20260905035530 79 360 8.7 0.0 0.00 0.00 0.00 52 1004.9
20260905035030 79 360 7.8 0.0 0.00 0.00 0.00 51 1004.9
20260905034631 79 360 7.8 0.0 0.00 0.00 0.00 51 1005.0
20260905034034 79 360 7.8 0.0 0.00 0.00 0.00 52 1005.0
20260905033530 79 360 7.8 0.0 0.00 0.00 0.00 52 1005.1
20260905033033 79 360 7.8 0.0 0.00 0.00 0.00 52 1005.0
20260905032531 79 360 7.8 0.0 0.00 0.00 0.00 52 1005.1
20260905032030 79 360 7.8 0.0 0.00 0.00 0.00 53 1005.1
20260905031531 80 360 7.8 0.0 0.00 0.00 0.00 53 1005.1
20260905031031 80 360 7.0 0.0 0.00 0.00 0.00 53 1005.2
20260905030530 80 360 6.1 0.0 0.00 0.00 0.00 53 1005.2
20260905030037 80 360 6.1 0.0 0.00 0.00 0.00 53 1005.3
20260905025530 81 360 7.0 0.0 0.00 0.00 0.00 52 1005.1
20260905025030 82 360 7.0 0.0 0.00 0.00 0.00 51 1005.0
20260905024630 82 360 6.1 0.0 0.00 0.00 0.00 52 1005.1
20260905024031 82 360 6.1 0.0 0.00 0.00 0.00 51 1005.0
20260905023532 83 360 7.0 0.0 0.00 0.00 0.00 50 1005.1
20260905023033 83 360 7.8 0.0 0.00 0.00 0.00 50 1005.0
20260905022531 83 360 7.0 0.0 0.00 0.00 0.00 51 1005.0
20260905022030 83 360 6.1 0.0 0.00 0.00 0.00 52 1005.0
20260905021530 83 360 7.0 0.0 0.00 0.00 0.00 52 1004.9
20260905021030 83 360 7.0 0.0 0.00 0.00 0.00 52 1004.8
20260905020529 83 360 7.0 0.0 0.00 0.00 0.00 52 1004.8
20260905020036 82 360 6.1 0.0 0.00 0.00 0.00 54 1004.8
20260905015531 82 360 6.1 0.0 0.00 0.00 0.00 54 1004.5
20260905015030 82 360 4.3 0.0 0.00 0.00 0.00 54 1004.5
20260905014629 82 360 4.3 0.0 0.00 0.00 0.00 52 1004.5
20260905014030 82 360 4.3 0.0 0.00 0.00 0.00 52 1004.5
20260905013529 83 360 5.2 0.0 0.00 0.00 0.00 51 1004.4
20260905013031 83 360 4.3 0.0 0.00 0.00 0.00 51 1004.4
20260905012529 83 360 4.3 0.0 0.00 0.00 0.00 50 1004.3
20260905012029 84 360 4.3 0.0 0.00 0.00 0.00 49 1004.4
20260905011528 85 360 4.3 0.0 0.00 0.00 0.00 48 1004.3
20260905011028 85 360 4.3 0.0 0.00 0.00 0.00 47 1004.3
20260905010528 86 360 4.3 0.0 0.00 0.00 0.00 46 1004.3
20260905010027 87 360 4.3 0.0 0.00 0.00 0.00 45 1004.3
20260905005527 87 360 4.3 0.0 0.00 0.00 0.00 44 1004.2
20260905005028 88 86 4.3 0.0 0.00 0.00 0.00 43 1004.2
20260905004626 89 90 4.3 0.0 0.00 0.00 0.00 41 1004.2
20260905004025 89 89 4.3 0.0 0.00 0.00 0.00 41 1004.2
20260905003527 90 86 4.3 0.0 0.00 0.00 0.00 40 1004.0
20260905003031 90 360 5.2 0.0 0.00 0.00 0.00 38 1004.0
20260905002524 91 81 6.1 0.0 0.00 0.00 0.00 37 1004.1
20260905002025 91 81 5.2 0.0 0.00 0.00 0.00 36 1004.0
20260905001544 91 100 5.2 0.0 0.00 0.00 0.00 36 1004.2
20260905001028 91 94 5.2 0.0 0.00 0.00 0.00 36 1004.1
20260905000526 92 86 5.2 0.0 0.00 0.00 0.00 36 1004.2
20260905000024 92 111 5.2 0.0 0.00 0.00 0.00 34 1004.2
20260904235524 93 121 6.1 0.0 0.00 0.00 0.00 34 1004.2
20260904235026 93 93 6.1 0.0 0.00 0.00 0.00 33 1004.3
20260904234624 93 119 5.2 0.0 0.00 0.00 0.00 34 1004.4
20260904234023 93 110 6.1 0.0 0.00 0.00 0.00 33 1004.4
20260904233523 93 98 6.1 0.0 0.00 0.00 0.00 33 1004.3
20260904233038 93 109 7.0 0.0 0.00 0.00 0.00 34 1004.3
20260904232524 93 360 7.0 0.0 0.00 0.00 0.00 33 1004.3
20260904232022 93 134 7.0 0.0 0.00 0.00 0.00 33 1004.3
20260904231530 93 111 7.0 0.0 0.00 0.00 0.00 32 1004.4
20260904231021 93 140 8.7 0.0 0.00 0.00 0.00 33 1004.4
20260904230521 93 360 7.8 0.0 0.00 0.00 0.00 33 1004.5
20260904230021 94 141 7.8 0.0 0.00 0.00 0.00 33 1004.5
20260904225523 94 360 8.7 0.0 0.00 0.00 0.00 33 1004.5
20260904225020 94 360 9.6 0.0 0.00 0.00 0.00 34 1004.5
20260904224620 93 124 9.6 0.0 0.00 0.00 0.00 35 1004.4
20260904224020 93 127 8.7 0.0 0.00 0.00 0.00 35 1004.5
20260904223521 93 360 8.7 0.0 0.00 0.00 0.00 35 1004.5
20260904223020 93 360 8.7 0.0 0.00 0.00 0.00 35 1004.5
20260904222520 93 360 9.6 0.0 0.00 0.00 0.00 35 1004.5
20260904222018 93 360 9.6 0.0 0.00 0.00 0.00 34 1004.6
20260904221518 93 360 9.6 0.0 0.00 0.00 0.00 35 1004.6
20260904221017 93 360 9.6 0.0 0.00 0.00 0.00 35 1004.7
20260904220517 93 360 9.6 0.0 0.00 0.00 0.00 35 1004.7
20260904220017 93 360 10.4 0.0 0.00 0.00 0.00 35 1004.8
20260904215517 93 360 10.4 0.0 0.00 0.00 0.00 35 1004.9
20260904215016 93 360 10.4 0.0 0.00 0.00 0.00 35 1004.8
20260904214615 93 360 10.4 0.0 0.00 0.00 0.00 36 1004.9
20260904214015 93 360 9.6 0.0 0.00 0.00 0.00 36 1004.9
20260904213516 92 360 9.6 0.0 0.00 0.00 0.00 36 1004.9
20260904213022 92 360 10.4 0.0 0.00 0.00 0.00 36 1004.9
20260904212513 92 360 11.3 0.0 0.00 0.00 0.00 36 1005.0
20260904212012 92 360 11.3 0.0 0.00 0.00 0.00 37 1005.0
20260904211513 92 360 12.2 0.0 0.00 0.00 0.00 37 1005.0
20260904211013 92 360 12.2 0.0 0.00 0.00 0.00 38 1004.9
20260904210511 91 360 13.0 0.0 0.00 0.00 0.00 38 1005.0
20260904210010 91 360 13.0 0.0 0.00 0.00 0.00 37 1005.0
20260904205510 91 360 13.0 0.0 0.00 0.00 0.00 37 1005.0
20260904205010 91 360 12.2 0.0 0.00 0.00 0.00 36 1005.0
20260904204609 91 360 12.2 0.0 0.00 0.00 0.00 37 1005.1
20260904204009 91 360 13.0 0.0 0.00 0.00 0.00 37 1005.1
20260904203508 90 360 13.9 0.0 0.00 0.00 0.00 39 1005.1
20260904203008 90 360 13.9 0.0 0.00 0.00 0.00 39 1005.2
20260904202507 90 360 13.9 0.0 0.00 0.00 0.00 38 1005.2
20260904202007 90 360 13.9 0.0 0.00 0.00 0.00 38 1005.2
20260904201506 90 360 13.9 0.0 0.00 0.00 0.00 38 1005.3
20260904201006 90 360 13.0 0.0 0.00 0.00 0.00 38 1005.3
20260904200510 90 360 13.9 0.0 0.00 0.00 0.00 37 1005.3
20260904200006 90 360 13.9 0.0 0.00 0.00 0.00 37 1005.5
20260904195505 90 360 13.0 0.0 0.00 0.00 0.00 37 1005.4
20260904195003 90 360 13.0 0.0 0.00 0.00 0.00 38 1005.6
20260904194603 89 360 13.9 0.0 0.00 0.00 0.00 38 1005.7
20260904194003 89 360 13.9 0.0 0.00 0.00 0.00 38 1005.7
20260904193500 89 360 14.8 0.0 0.00 0.00 0.00 37 1005.9
20260904193123 89 360 14.8 0.0 0.00 0.00 0.00 38 1006.1
20260904192559 88 360 15.6 0.0 0.00 0.00 0.00 37 1006.1
20260904192100 88 360 15.6 0.0 0.00 0.00 0.00 36 1006.1
20260904191559 88 360 16.5 0.0 0.00 0.00 0.00 35 1006.2
20260904191058 88 360 16.5 0.0 0.00 0.00 0.00 36 1006.2
20260904190558 89 360 15.6 0.0 0.00 0.00 0.00 34 1006.4
20260904190056 87 360 13.0 0.0 0.00 0.00 0.00 34 1006.4
20260904185556 87 360 13.0 0.0 0.00 0.00 0.00 42 1006.4
20260904185056 87 360 13.0 0.0 0.00 0.00 0.00 42 1006.5
20260904184555 87 360 13.9 0.0 0.00 0.00 0.00 40 1006.6
20260904184056 87 360 13.9 0.0 0.00 0.00 0.00 41 1006.6
20260904183554 86 360 14.8 0.0 0.00 0.00 0.00 40 1006.7
20260904183054 86 360 15.6 0.0 0.00 0.00 0.00 40 1006.8
20260904182553 86 360 14.8 0.0 0.00 0.00 0.00 39 1006.9
20260904182052 86 360 13.9 0.0 0.00 0.00 0.00 41 1006.9
20260904181550 86 360 13.9 0.0 0.00 0.00 0.00 44 1007.1
20260904181049 85 360 14.8 0.0 0.00 0.00 0.00 42 1007.3
20260904180551 84 360 13.9 0.0 0.00 0.00 0.00 48 1007.5
20260904180048 84 101 13.9 0.0 0.00 0.00 0.00 52 1007.5
20260904175545 83 104 13.9 0.0 0.00 0.00 0.00 54 1007.6
20260904175043 82 129 14.8 0.0 0.00 0.00 0.00 56 1007.6
20260904174542 81 127 14.8 0.0 0.00 0.00 0.00 56 1007.8
20260904174042 82 121 14.8 0.0 0.00 0.00 0.00 57 1007.8
20260904173541 81 121 14.8 0.0 0.00 0.00 0.00 58 1008.0
20260904173050 81 128 13.9 0.0 0.00 0.00 0.00 59 1008.0
20260904172540 80 131 13.0 0.0 0.00 0.00 0.00 60 1008.1
20260904172038 80 101 13.9 0.0 0.00 0.00 0.00 62 1008.2
20260904171536 79 125 13.9 0.0 0.00 0.00 0.00 62 1008.4
20260904171039 79 360 13.0 0.0 0.00 0.00 0.00 64 1008.4
20260904170535 79 95 13.9 0.0 0.00 0.00 0.00 65 1008.4
20260904170034 78 124 13.0 0.0 0.00 0.00 0.00 66 1008.4
20260904165533 78 109 13.0 0.0 0.00 0.00 0.00 67 1008.4
20260904165034 77 360 13.0 0.0 0.00 0.00 0.00 69 1008.5
20260904164530 76 110 13.9 0.0 0.00 0.00 0.00 71 1008.5
20260904164028 76 119 13.9 0.0 0.00 0.00 0.00 71 1008.6
20260904163528 75 105 13.9 0.0 0.00 0.00 0.00 72 1008.6